York, NE

1:20 AM CDT on May 25, 2017 (GMT -0500)
York Municipal

Weather History for KJYR - May, 2013

Change the Weather History Date:

Wednesday, May 1, 2013

  Actual Average Record
Temperature  
Mean Temperature 41 °F -  
Max Temperature 50 °F 67 °F 93 °F (1955)
Min Temperature 32 °F 43 °F 28 °F (1966)
Degree Days  
Heating Degree Days 24    
Moisture  
Dew Point 36 °F    
Average Humidity 95    
Maximum Humidity 100    
Minimum Humidity 66    
Precipitation  
Precipitation 0.52 in - - ()
Sea Level Pressure  
Sea Level Pressure 30.23 in    
Wind  
Wind Speed 25 mph (NNE)    
Max Wind Speed 32 mph    
Max Gust Speed 41 mph    
Visibility 4 miles    
Events Rain , Snow , Thunderstorm    
Averages and records for this station are not official NWS values.
T = Trace of Precipitation, MM = Missing Value Source: NWS Daily Summary

Daily Weather History Graph

Daily Weather History Graph

Search for Another Location

Airport or City:

Trip Planner

Search our weather history database for the weather conditions in past years. The results will help you decide how hot, cold, wet, or windy it might be!

Date:

Astronomy

May. 01, 2013 Rise Set
Actual Time 6:28 AM CDT 8:27 PM CDT
Civil Twilight 5:58 AM CDT 8:57 PM CDT
Nautical Twilight 5:22 AM CDT 9:33 PM CDT
Astronomical Twilight 4:42 AM CDT 10:13 PM CDT
Moon 1:37 AM CDT (5/1) 12:08 PM CDT (5/1)
Length of Visible Light 14h 58m
Length of Day
13h 58m
Waning Gibbous, 59% of the Moon is Illuminated
May 1
Waning Gibbous
May 2
Last Quarter
May 9
New
May 17
First Quarter
May 24
Full

Hourly Weather History & Observations

Time (CDT) Temp. Windchill Dew Point Humidity Pressure Visibility Wind Dir Wind Speed Gust Speed Precip Events Conditions
12:15 AM 50.0 °F - 39.2 °F 66% 29.94 in 9.0 mi NNE 21.9 mph 27.6 mph N/A Rain Light Rain
12:35 AM 48.2 °F - 41.0 °F 76% 29.95 in 10.0 mi North 26.5 mph 33.4 mph N/A Rain Light Rain
12:55 AM 48.2 °F - 41.0 °F 76% 29.94 in 10.0 mi NNE 29.9 mph 36.8 mph 0.01 in Rain , Thunderstorm Light Rain
1:15 AM 48.2 °F - 41.0 °F 76% 29.99 in 10.0 mi North 26.5 mph 41.4 mph N/A Rain , Thunderstorm Light Rain
1:35 AM 46.4 °F 37.2 °F 41.0 °F 81% 29.99 in 4.0 mi North 29.9 mph 39.1 mph 0.05 in Rain Heavy Rain
1:55 AM 46.4 °F 37.7 °F 41.0 °F 81% 29.98 in 10.0 mi NNE 26.5 mph 38.0 mph 0.05 in Rain , Thunderstorm Light Rain
2:15 AM 46.4 °F 38.1 °F 41.0 °F 81% 29.97 in 10.0 mi NNE 24.2 mph 33.4 mph N/A   Overcast
2:35 AM 46.4 °F 36.9 °F 41.0 °F 81% 30.01 in 10.0 mi North 32.2 mph 40.3 mph N/A   Overcast
3:15 AM 44.6 °F 35.3 °F 41.0 °F 87% 30.01 in 7.0 mi NNE 26.5 mph 36.8 mph N/A Rain Light Rain
3:35 AM 44.6 °F 35.5 °F 41.0 °F 87% 30.02 in 10.0 mi NNE 25.3 mph 34.5 mph N/A Rain , Thunderstorm Light Rain
4:15 AM 44.6 °F 34.7 °F 41.0 °F 87% 30.05 in 5.0 mi NNE 29.9 mph 35.7 mph N/A   Mostly Cloudy
4:35 AM 42.8 °F 33.1 °F 41.0 °F 93% 30.06 in 5.0 mi NNE 25.3 mph 33.4 mph 0.02 in Rain Light Rain
5:15 AM 41.0 °F 30.9 °F 41.0 °F 100% 30.04 in 4.0 mi NE 24.2 mph 29.9 mph 0.01 in   Mostly Cloudy
5:35 AM 41.0 °F 30.9 °F 41.0 °F 100% 30.08 in 6.0 mi NNE 24.2 mph 34.5 mph 0.02 in Rain Light Rain
5:55 AM 41.0 °F 30.9 °F 41.0 °F 100% 30.11 in 9.0 mi NNE 24.2 mph 32.2 mph 0.02 in   Overcast
6:15 AM 41.0 °F 30.2 °F 41.0 °F 100% 30.10 in 3.0 mi NNE 27.6 mph 33.4 mph 0.02 in   Mostly Cloudy
6:35 AM 41.0 °F 30.5 °F 39.2 °F 93% 30.12 in 3.0 mi NNE 26.5 mph 34.5 mph 0.03 in   Mostly Cloudy
6:55 AM 39.2 °F 27.8 °F 39.2 °F 100% 30.12 in 2.0 mi NNE 27.6 mph 33.4 mph 0.05 in   Mostly Cloudy
7:15 AM 39.2 °F 28.7 °F 39.2 °F 100% 30.18 in 2.5 mi North 23.0 mph 35.7 mph 0.01 in   Mostly Cloudy
7:35 AM 37.4 °F 25.6 °F 37.4 °F 100% 30.16 in 2.0 mi NNE 26.5 mph 34.5 mph 0.06 in   Mostly Cloudy
8:15 AM 37.4 °F 25.9 °F 35.6 °F 93% 30.17 in 5.0 mi North 25.3 mph 35.7 mph 0.01 in Rain Light Rain
8:35 AM 35.6 °F 23.7 °F 35.6 °F 100% 30.19 in 5.0 mi NNE 24.2 mph 34.5 mph 0.01 in Rain Light Rain
8:55 AM 35.6 °F 23.4 °F 35.6 °F 100% 30.20 in 2.0 mi NNE 25.3 mph 32.2 mph 0.03 in Rain Rain
9:15 AM 35.6 °F 23.2 °F 35.6 °F 100% 30.20 in 1.5 mi NNE 26.5 mph 32.2 mph 0.02 in   Scattered Clouds
9:35 AM 35.6 °F 23.7 °F 35.6 °F 100% 30.21 in 2.5 mi NNE 24.2 mph 31.1 mph 0.02 in Rain Light Rain
9:55 AM 35.6 °F 23.7 °F 35.6 °F 100% 30.20 in 3.0 mi NNE 24.2 mph 28.8 mph 0.03 in Rain Light Rain
10:15 AM 35.6 °F 23.7 °F 35.6 °F 100% 30.22 in 3.0 mi NNE 24.2 mph 29.9 mph N/A Rain Light Rain
10:35 AM 35.6 °F 23.4 °F 35.6 °F 100% 30.23 in 2.5 mi NNE 25.3 mph 31.1 mph N/A Rain Light Rain
10:55 AM 35.6 °F 23.7 °F 35.6 °F 100% 30.24 in 1.5 mi NNE 24.2 mph 33.4 mph 0.02 in   Mostly Cloudy
11:15 AM 35.6 °F 23.2 °F 35.6 °F 100% 30.24 in 1.8 mi NNE 26.5 mph 32.2 mph 0.02 in   Scattered Clouds
11:35 AM 35.6 °F 22.7 °F 35.6 °F 100% 30.25 in 3.0 mi NNE 28.8 mph 36.8 mph 0.03 in   Partly Cloudy
11:55 AM 35.6 °F 23.4 °F 33.8 °F 93% 30.26 in 3.0 mi NNE 25.3 mph 35.7 mph 0.03 in Rain Light Rain
12:15 PM 35.6 °F 23.2 °F 33.8 °F 93% 30.27 in 2.0 mi NNE 26.5 mph 38.0 mph 0.01 in   Scattered Clouds
12:35 PM 35.6 °F 23.0 °F 33.8 °F 93% 30.28 in 3.0 mi NNE 27.6 mph 38.0 mph 0.01 in Rain Light Rain
12:55 PM 35.6 °F 22.7 °F 33.8 °F 93% 30.28 in 3.0 mi North 28.8 mph 32.2 mph 0.01 in Rain Light Rain
1:15 PM 35.6 °F 23.2 °F 33.8 °F 93% 30.28 in 1.2 mi North 26.5 mph 33.4 mph 0.01 in   Scattered Clouds
1:35 PM 35.6 °F 23.2 °F 33.8 °F 93% 30.28 in 1.2 mi North 26.5 mph 36.8 mph 0.03 in   Scattered Clouds
1:55 PM 33.8 °F 21.0 °F 33.8 °F 100% 30.29 in 1.5 mi North 25.3 mph 36.8 mph 0.04 in   Scattered Clouds
2:15 PM 35.6 °F 22.7 °F 33.8 °F 93% 30.30 in 1.8 mi North 28.8 mph 38.0 mph N/A   Scattered Clouds
2:35 PM 33.8 °F 21.0 °F 33.8 °F 100% 30.30 in 3.0 mi NNE 25.3 mph 36.8 mph 0.01 in Rain Light Rain
3:15 PM 35.6 °F 24.0 °F 33.8 °F 93% 30.32 in 1.2 mi North 23.0 mph 36.8 mph 0.01 in   Scattered Clouds
3:35 PM 33.8 °F 21.6 °F 33.8 °F 100% 30.33 in 1.5 mi NNE 23.0 mph 33.4 mph 0.03 in   Mostly Cloudy
4:15 PM 32.0 °F 18.9 °F 32.0 °F 100% 30.34 in 2.0 mi North 24.2 mph 32.2 mph 0.01 in Rain Light Rain
4:35 PM 33.8 °F 21.9 °F 32.0 °F 93% 30.34 in 3.0 mi North 21.9 mph 27.6 mph 0.01 in Rain Light Rain
4:55 PM 32.0 °F 18.6 °F 32.0 °F 100% 30.34 in 1.5 mi North 25.3 mph 31.1 mph 0.02 in Rain Rain
5:15 PM 32.0 °F 17.6 °F 32.0 °F 100% 30.35 in 1.2 mi NNE 29.9 mph 34.5 mph N/A Rain Light Rain
5:35 PM 33.8 °F 21.0 °F 32.0 °F 93% 30.35 in 2.0 mi North 25.3 mph 35.7 mph 0.01 in Rain Light Rain
5:55 PM 33.8 °F 23.5 °F 32.0 °F 93% 30.36 in 2.5 mi North 16.1 mph 28.8 mph 0.01 in Rain Light Rain
6:15 PM 32.0 °F 20.5 °F 32.0 °F 100% 30.36 in 1.8 mi North 18.4 mph 23.0 mph N/A Rain Heavy Rain
6:35 PM 32.0 °F 20.5 °F 32.0 °F 100% 30.38 in 1.8 mi North 18.4 mph 29.9 mph 0.01 in Rain Rain
6:55 PM 32.0 °F 19.2 °F 32.0 °F 100% 30.37 in 1.5 mi North 23.0 mph 31.1 mph 0.01 in   Mostly Cloudy
7:15 PM 32.0 °F 20.1 °F 32.0 °F 100% 30.39 in 0.8 mi North 19.6 mph 28.8 mph N/A   Overcast
7:35 PM 32.0 °F 18.6 °F 32.0 °F 100% 30.37 in 1.2 mi NNE 25.3 mph 33.4 mph 0.01 in   Overcast
7:55 PM 32.0 °F 19.5 °F 32.0 °F 100% 30.38 in 1.2 mi North 21.9 mph 28.8 mph 0.02 in   Overcast
8:35 PM 32.0 °F 19.2 °F 32.0 °F 100% 30.37 in 1.2 mi NNE 23.0 mph 31.1 mph 0.01 in   Overcast
8:55 PM 32.0 °F 19.5 °F 32.0 °F 100% 30.37 in 1.8 mi NNE 21.9 mph 27.6 mph 0.01 in Snow Light Snow
9:35 PM 32.0 °F 18.9 °F 32.0 °F 100% 30.37 in 4.0 mi NNE 24.2 mph 27.6 mph 0.02 in   Overcast
9:55 PM 32.0 °F 20.1 °F 32.0 °F 100% 30.43 in 7.0 mi NNE 19.6 mph - 0.03 in   Overcast
10:35 PM 32.0 °F 19.2 °F 32.0 °F 100% 30.45 in 10.0 mi NNE 23.0 mph 29.9 mph N/A   Overcast
10:55 PM 32.0 °F 18.6 °F 32.0 °F 100% 30.43 in 10.0 mi NNE 25.3 mph 31.1 mph N/A   Overcast
11:15 PM 32.0 °F 21.6 °F 32.0 °F 100% 30.46 in 10.0 mi North 15.0 mph 24.2 mph 0.01 in   Overcast
11:35 PM 32.0 °F 24.2 °F 32.0 °F 100% 30.46 in 10.0 mi North 9.2 mph - 0.01 in   Overcast
11:55 PM 32.0 °F 23.6 °F 32.0 °F 100% 30.46 in 10.0 mi NNW 10.4 mph - 0.01 in   Overcast